PDT,Max TemperatureF,Mean TemperatureF,Min TemperatureF,Max Dew PointF,MeanDew PointF,Min DewpointF,Max Humidity, Mean Humidity, Min Humidity, Max Sea Level PressureIn, Mean Sea Level PressureIn, Min Sea Level PressureIn, Max VisibilityMiles, Mean VisibilityMiles, Min VisibilityMiles, Max Wind SpeedMPH, Mean Wind SpeedMPH, Max Gust SpeedMPH,PrecipitationIn, CloudCover, Events, WindDirDegrees
2014-4-1,50,38,28,29,19,12,76,45,23,29.78,29.72,29.65,10,10,10,18,7,25,0.00,4,,268
2014-4-2,52,38,25,30,26,23,92,65,35,29.96,29.85,29.75,10,10,10,16,6,25,0.00,4,Rain,322
2014-4-3,59,42,27,29,22,12,89,52,18,30.06,29.94,29.86,10,10,10,9,6,,0.00,5,,152
2014-4-4,59,46,34,29,23,16,64,42,19,29.95,29.84,29.76,10,10,10,14,5,,0.00,6,,334
2014-4-5,61,48,36,28,24,20,67,42,22,30.07,29.97,29.88,10,10,10,14,7,20,0.00,4,,326
2014-4-6,68,50,33,32,26,20,59,39,21,30.29,30.14,30.08,10,10,10,16,6,21,0.00,3,,59
2014-4-7,75,52,32,28,24,21,64,37,14,30.31,30.16,30.08,10,10,10,9,4,,0.00,1,,145
2014-4-8,80,60,39,27,23,19,53,30,10,30.22,30.07,29.98,10,10,10,9,5,,0.00,5,,224
2014-4-9,81,62,44,32,24,14,51,29,9,30.13,29.99,29.90,10,10,10,16,4,24,0.00,4,,240
2014-4-10,78,58,39,29,19,7,60,28,7,30.10,29.97,29.88,10,10,10,12,5,22,0.00,0,,159
2014-4-11,80,60,41,31,21,16,38,24,10,30.00,29.86,29.76,10,10,10,8,5,,0.00,4,,203
2014-4-12,79,62,46,33,28,1,52,29,10,29.87,29.76,29.67,10,10,7,22,7,29,0.00,2,,303
2014-4-13,64,54,37,20,10,1,35,20,10,30.20,30.03,29.86,10,10,10,17,11,24,0.00,1,,4
2014-4-14,72,48,24,15,7,-3,51,23,6,30.25,30.08,29.98,10,10,10,9,4,,0.00,3,,116
2014-4-15,79,62,45,25,17,10,27,20,9,30.04,29.91,29.82,10,10,10,18,8,25,0.00,4,,350
2014-4-16,73,54,37,22,19,15,47,26,13,29.98,29.88,29.82,10,10,10,8,5,,0.00,3,,56
2014-4-17,80,58,37,35,26,20,51,29,14,29.93,29.80,29.68,10,10,9,24,6,36,0.00,3,,260
2014-4-18,73,62,50,37,34,23,59,38,22,29.96,29.85,29.78,10,10,10,16,8,17,0.00,4,,360
2014-4-19,80,62,46,40,26,18,46,27,10,30.02,29.90,29.85,10,10,10,21,7,26,0.00,2,,260
2014-4-20,73,54,37,30,21,11,51,27,10,30.25,30.08,30.02,10,10,10,10,6,,0.00,2,,325
2014-4-21,75,56,37,27,19,15,47,25,10,30.11,29.94,29.79,10,10,10,20,6,31,0.00,5,,233
2014-4-22,61,49,37,31,22,9,57,34,13,29.95,29.80,29.70,10,10,9,33,15,44,0.00,4,Rain,284
2014-4-23,63,44,28,24,19,17,64,37,19,30.06,29.95,29.89,10,10,10,8,3,28,0.00,3,,171
2014-4-24,69,55,41,26,24,20,43,29,20,30.02,29.88,29.78,10,10,10,17,7,28,0.00,6,,214
2014-4-25,57,47,39,39,34,26,93,63,32,29.76,29.68,29.62,10,9,4,15,9,,0.25,8,Rain,310
2014-4-26,57,48,39,37,28,17,89,53,21,29.85,29.73,29.63,10,10,10,20,10,26,0.00,5,,301
2014-4-27,64,50,37,28,23,15,65,39,15,29.98,29.88,29.83,10,10,10,20,8,29,0.00,3,,270
2014-4-28,64,48,34,28,22,14,73,40,15,30.22,30.12,30.01,10,10,10,10,5,,0.00,1,,38
2014-4-29,71,52,33,23,16,8,64,28,11,30.42,30.28,30.22,10,10,10,12,5,22,0.00,2,,47
2014-4-30,77,54,32,20,13,6,61,24,7,30.43,30.24,30.14,10,10,10,12,5,,0.00,1,,162